Weather Roundup
Issued by NWS

Home | Current Version | Previous Version | Graphics & Text | Print | Product List | Glossary Off
Versions: 1 2 3 4 5 6 7 8 9 10 11 12 13 14 15 16 17 18 19 20 21 22 23 24 25 26 27 28 29 30 31 32 33 34 35 36 37 38 39 40 41 42 43 44 45 46 47 48 49 50

000
NZUS93 KARX 240710
HRRWXR

CURRENT HOURLY OBSERVATIONS ACROSS
MUCH OF THE UPPER MISSISSIPPI VALLEY
NATIONAL WEATHER SERVICE LA CROSSE WI
200 AM CDT THU APR 24 2014


...SOUTHEAST MINNESOTA...


CITY           SKY/WX    TMP DP  RH WIND       PRES   REMARKS
ROCHESTER      LGT RAIN  42  36  79 SE22G31   29.89F
ROCHESTER/MAYO CLOUDY    43  36  75 E15G24    29.90F
WINONA         CLOUDY    43  37  81 SE14G22   29.97S
AUSTIN         LGT RAIN  43  39  87 SE16      29.86F
ALBERT LEA     LGT RAIN  43  43 100 SE20G29   29.82F
DODGE CENTER   DRIZZLE   46  39  76 SE17      29.88S
PRESTON        LGT RAIN  42  38  84 SE17G24   29.92F
OWATONNA       RAIN      45  37  76 SE18      29.86F
FARIBAULT      LGT RAIN  46  36  66 E16G23    29.88F
$$

...ELSEWHERE IN MINNESOTA...


CITY           SKY/WX    TMP DP  RH WIND       PRES   REMARKS
MINNEAPOLIS    CLOUDY    44  37  76 SE20G29   29.89F
INTNL FALLS    LGT RAIN  37  34  89 SE12      29.98F WCI  29
DULUTH         LGT RAIN  36  34  92 SE12      29.99F WCI  28
RED WING       CLOUDY    46  37  71 SE14G22   29.92F
REDWOOD FALLS  CLOUDY    44  37  76 SE15      29.78F
MANKATO        CLOUDY    45  37  76 SE20      29.83F
WORTHINGTON    CLOUDY    43  36  75 E10       29.75S
FAIRMONT       CLOUDY    45  37  76 SE23      29.77F
$$

...SOUTHWEST WISCONSIN...


CITY           SKY/WX    TMP DP  RH WIND       PRES   REMARKS
LA CROSSE      LGT RAIN  42  36  79 SE10G22   29.99F
PRAIRIE DU CHI RAIN      42  36  80 E9        29.98F
BOSCOBEL       LGT RAIN  43  34  70 E8        30.01F
LONE ROCK      CLOUDY    40  34  79 E17       30.03F WCI  31
PLATTEVILLE    CLOUDY    41  34  77 E16       30.00S
FORT MC COY    RAIN      39  37  93 E8        30.04F WCI  34
CAMP DOUGLAS   LGT RAIN  38  38 100 SE12      30.06F WCI  30
VIROQUA        NOT AVBL
WIS DELLS      LGT RAIN  37  33  86 SE6       30.07R WCI  32
$$

...ELSEWHERE IN WISCONSIN...


CITY           SKY/WX    TMP DP  RH WIND       PRES   REMARKS
MILWAUKEE      LGT RAIN  38  26  62 E3        30.10R
MADISON        LGT RAIN  38  29  70 SE14      30.10R WCI  30
GREEN BAY      CLOUDY    41  21  44 E5        30.10S
EAU CLAIRE     CLOUDY    41  39  93 E14       29.99S
BLACK RVR FLS  LGT RAIN  39  39  99 E7        30.03F WCI  34
MEDFORD        DRIZZLE   37  32  81 E8        30.04R WCI  31
WAUSAU         LGT RAIN  40  15  36 SE6       30.07R
WIS RAPIDS     LGT RAIN  36  31  82 E8        30.09S WCI  30
MARSHFIELD     LGT RAIN  37  30  75 SE12      30.05F WCI  29
RICE LAKE      LGT RAIN  39  37  93 E14G20    30.00F WCI  31
$$

...NORTHEAST IOWA...


CITY           SKY/WX    TMP DP  RH WIND       PRES   REMARKS
WATERLOO       LGT RAIN  44  41  89 E16       29.87F
DUBUQUE        CLOUDY    42  33  70 E15       29.97S
DECORAH        LGT RAIN  41  39  93 SE15G22   29.92F
MASON CITY     CLOUDY    44  40  85 SE21      29.83F
CHARLES CITY   CLOUDY    45  39  81 SE22G28   29.87S
OELWEIN        DRIZZLE  N/A N/A N/A SE17G25   29.91F
$$

...ELSEWHERE IN IOWA...


CITY           SKY/WX    TMP DP  RH WIND       PRES   REMARKS
DES MOINES     CLOUDY    53  39  59 SE16G24   29.73F
IOWA CITY      CLOUDY    48  39  71 E12       29.90F
FORT DODGE     CLOUDY    45  39  81 SE15      29.74F
MARSHALLTOWN   CLOUDY    46  40  79 E15       29.82F
CEDAR RAPIDS   CLOUDY    46  39  76 E15       29.87F
$$

...NORTHERN ILLINOIS...


CITY           SKY/WX    TMP DP  RH WIND       PRES   REMARKS
CHICAGO-OHARE  LGT RAIN  39  30  70 NE10      30.07F WCI  32
DUPAGE         CLOUDY    38  33  82 NE8       30.06F WCI  32
CHICAGO-MIDWAY LGT RAIN  41  35  79 N8        30.07S
MOLINE         CLOUDY    46  37  71 E15       29.95S
ROCKFORD       CLOUDY    39  29  67 E12       30.08R WCI  32
STERLING       CLOUDY    43  34  70 E15       30.01S
PEORIA         CLOUDY    52  37  56 E8        29.96F
$$

NOTE: "FAIR" INDICATES FEW OR NO CLOUDS BELOW 12,000 FEET WITH NO
SIGNIFICANT WEATHER AND/OR OBSTRUCTIONS TO VISIBILITY. WIND
SPEEDS ARE IN MILES-PER-HOUR.



USA.gov is the U.S. government's official web portal to all federal, state and local government web resources and services.